THORAD AGENA D DEB, 4655

Orbit data source: Space-Track

THORAD AGENA D DEB, 4655 is space debris in SSO originally from a launch on Wed, 08 Apr 1970 UTC launched from the Air Force Western Test Range (AFWTR). Debris objects in space refer to the collection of defunct objects orbiting the Earth. Examples of debris include non-operational satellites, rocket bodies, and fragments generated from explosions, collisions, or faulty payload assembly.

Loading next visibility...
Identifier
4655, 1970-025AP
Orbit
SSO
Last TLE update
1 day ago
Origin
Manufacturer
Unknown
Mission
Spacecraft
Bus & Motor
Unknown
Mass
Unknown
Launch date (UTC)
1970-04-08 (55 years ago)
Launch vehicle
Unknown
Launch site
Air Force Western Test Range (AFWTR)
Object type
Payload
Rocket body
Debris
Shape & HBR
Unknown
Radar Cross Section
Small (<0.1 m²)

Expand to show TLE details & history

TLE from 1 day ago
0 THORAD AGENA D DEB
1 04655U 70025AP  25193.21469446  .00000138  00000-0  21335-3 0  9999
2 04655  99.9655 286.7773 0052932 291.3700  68.1801 13.69141559751290
Epoch: 2025-07-12T05:09Z
TLE epoch observation values (Epoch: 2025-07-12T05:09:09.601Z)
Latitude
0.00002°
Longitude
-80.86818°
Altitude
991.112 km
Speed
7.363 km/s
True Right ascension
19h 07m 06s
True Declination
0° 00' 00"
Sunlit
Object was in full shadow at epoch
Visualization orbit readout
Latitude
52.21051°
Longitude
113.47047°
Altitude
1,048.036 km
Speed
7.314 km/s
Apparent Right ascension
10h 07m 32s
Apparent Declination
12° 10' 31"
Sunlit
Object is in daylight
Visualization observer readout
Local Sidereal Time
00:01:14
Azimuth
33.118° NE
Elevation
-31.601°
Doppler factor
1
Orbital elements
Apogee altitude
1,038.998 km
Perigee altitude
960.891 km
Semi-major axis
7,378.081 km
Eccentricity
0.00529
Inclination
99.9655°
RAAN
286.7773°
Arg. of periapsis
291.37°
True anomaly
Unknown
Mean anomaly
68.1801°
Eccentric anomaly
Unknown
Mean motion
3.42474 °/min
Orbital period
105.12 mins
BSTAR
0.00021335
Loading maneuver chart data...
Loading SW <> Apogee altitude chart data...

THORAD AGENA D DEB Visibility forecast

Observer location: undefined°, undefined°

Span
Click to sort rows by Start time (UTC) header in descending order
Start Az.
Max El. time (UTC)
Max El. Az.
Max El.
End time (UTC)
End Az.
11 mins2025-07-13 18:35:18.006Z31.488° NE2025-07-13 18:40:18.006Z96.027° ESE35.263°2025-07-13 18:46:18.006Z171.021° S
8 mins2025-07-13 20:20:18.006Z343.439° N2025-07-13 20:24:18.006Z289.117° WNW26.882°2025-07-13 20:28:18.006Z243.397° WSW
7 mins2025-07-14 04:41:18.006Z91.675° ESE2025-07-14 04:44:18.006Z57.758° ENE18.936°2025-07-14 04:48:18.006Z16.75° NNE
11 mins2025-07-14 06:22:18.006Z174.217° S2025-07-14 06:27:18.006Z261.134° W43.37°2025-07-14 06:33:18.006Z340.157° N
|